Time,TemperatureF,DewpointF,PressureIn,WindDirection,WindDirectionDegrees,WindSpeedMPH,WindSpeedGustMPH,Humidity,HourlyPrecipIn,Conditions,Clouds,dailyrainin,SoftwareType,DateUTC
2013-05-04 00:00:00,61.6,55.4,30.00,East,90,3.4,9.8,80,0.00,,,0.04,WUHU216HW,2013-05-04 04:00:00,
2013-05-04 00:01:00,61.6,55.4,30.00,East,90,3.4,9.8,80,0.00,,,0.04,WUHU216HW,2013-05-04 04:01:00,
2013-05-04 00:06:00,61.4,55.2,30.00,East,90,7.4,9.8,80,0.00,,,0.00,WUHU216HW,2013-05-04 04:06:00,
2013-05-04 00:11:00,61.4,55.2,30.00,ESE,113,3.4,7.4,80,0.00,,,0.00,WUHU216HW,2013-05-04 04:11:00,
2013-05-04 00:16:00,61.4,55.2,30.00,ENE,68,4.9,7.4,80,0.00,,,0.00,WUHU216HW,2013-05-04 04:16:00,
2013-05-04 00:21:00,61.4,55.5,30.00,East,90,4.5,8.5,81,0.00,,,0.00,WUHU216HW,2013-05-04 04:21:00,
2013-05-04 00:26:00,61.6,55.7,30.00,East,90,5.4,8.5,81,0.00,,,0.00,WUHU216HW,2013-05-04 04:26:00,
2013-05-04 00:31:00,61.6,55.7,30.00,East,90,6.9,8.3,81,0.00,,,0.00,WUHU216HW,2013-05-04 04:31:00,
2013-05-04 00:36:00,61.6,55.7,30.00,ESE,113,2.5,9.8,81,0.00,,,0.00,WUHU216HW,2013-05-04 04:36:00,
2013-05-04 00:41:00,61.6,55.7,30.00,East,90,8.1,9.8,81,0.00,,,0.00,WUHU216HW,2013-05-04 04:41:00,
2013-05-04 00:46:00,61.6,55.7,30.00,ENE,68,3.1,8.1,81,0.00,,,0.00,WUHU216HW,2013-05-04 04:46:00,
2013-05-04 00:51:00,61.6,55.7,30.00,ENE,68,8.1,8.1,81,0.00,,,0.00,WUHU216HW,2013-05-04 04:51:00,
2013-05-04 00:56:00,61.7,55.9,30.00,ENE,68,5.4,10.5,81,0.00,,,0.00,WUHU216HW,2013-05-04 04:56:00,
2013-05-04 01:01:00,61.6,55.7,29.99,ENE,68,8.5,10.5,81,0.00,,,0.00,WUHU216HW,2013-05-04 05:01:00,
2013-05-04 01:06:00,61.7,55.9,29.99,East,90,6.9,8.5,81,0.00,,,0.00,WUHU216HW,2013-05-04 05:06:00,
2013-05-04 01:11:00,61.6,55.7,29.99,East,90,2.7,8.3,81,0.00,,,0.00,WUHU216HW,2013-05-04 05:11:00,
2013-05-04 01:16:00,61.6,56.1,29.99,ENE,68,2.0,7.2,82,0.00,,,0.00,WUHU216HW,2013-05-04 05:16:00,
2013-05-04 01:21:00,61.4,55.9,29.99,NE,45,4.7,11.6,82,0.00,,,0.00,WUHU216HW,2013-05-04 05:21:00,
2013-05-04 01:26:00,61.2,56.1,29.98,ENE,68,4.0,11.6,83,0.00,,,0.00,WUHU216HW,2013-05-04 05:26:00,
2013-05-04 01:31:00,61.4,56.2,29.98,ESE,113,4.7,9.2,83,0.00,,,0.00,WUHU216HW,2013-05-04 05:31:00,
2013-05-04 01:36:00,61.2,56.1,29.98,NE,45,3.8,9.2,83,0.00,,,0.00,WUHU216HW,2013-05-04 05:36:00,
2013-05-04 01:41:00,61.2,56.1,29.98,SE,135,5.4,6.3,83,0.00,,,0.00,WUHU216HW,2013-05-04 05:41:00,
2013-05-04 01:46:00,61.2,56.3,29.98,East,90,4.0,7.6,84,0.00,,,0.00,WUHU216HW,2013-05-04 05:46:00,
2013-05-04 01:51:00,61.2,56.3,29.97,NNE,23,2.5,7.6,84,0.00,,,0.00,WUHU216HW,2013-05-04 05:51:00,
2013-05-04 01:56:00,61.4,56.5,29.97,East,90,3.1,9.2,84,0.00,,,0.00,WUHU216HW,2013-05-04 05:56:00,
2013-05-04 02:01:00,61.4,56.5,29.97,ENE,68,4.7,9.2,84,0.00,,,0.00,WUHU216HW,2013-05-04 06:01:00,
2013-05-04 02:06:00,61.6,56.7,29.97,NNE,23,3.4,9.2,84,0.00,,,0.00,WUHU216HW,2013-05-04 06:06:00,
2013-05-04 02:11:00,61.6,57.1,29.97,East,90,11.9,11.9,85,0.00,,,0.00,WUHU216HW,2013-05-04 06:11:00,
2013-05-04 02:16:00,61.7,57.2,29.96,ENE,68,5.8,11.9,85,0.00,,,0.00,WUHU216HW,2013-05-04 06:16:00,
2013-05-04 02:21:00,61.7,57.2,29.96,NE,45,9.8,9.8,85,0.00,,,0.00,WUHU216HW,2013-05-04 06:21:00,
2013-05-04 02:26:00,61.9,57.3,29.95,NE,45,10.5,10.5,85,0.00,,,0.00,WUHU216HW,2013-05-04 06:26:00,
2013-05-04 02:31:00,61.9,57.3,29.95,ESE,113,7.8,12.8,85,0.00,,,0.00,WUHU216HW,2013-05-04 06:31:00,
2013-05-04 02:36:00,61.9,57.3,29.95,NE,45,9.2,12.8,85,0.00,,,0.00,WUHU216HW,2013-05-04 06:36:00,
2013-05-04 02:41:00,61.9,57.3,29.95,East,90,3.8,9.4,85,0.00,,,0.00,WUHU216HW,2013-05-04 06:41:00,
2013-05-04 02:46:00,61.9,57.3,29.95,ENE,68,6.0,9.4,85,0.00,,,0.00,WUHU216HW,2013-05-04 06:46:00,
2013-05-04 02:51:00,61.9,57.3,29.94,ESE,113,6.5,8.9,85,0.00,,,0.00,WUHU216HW,2013-05-04 06:51:00,
2013-05-04 02:56:00,61.9,57.3,29.94,East,90,6.3,9.6,85,0.00,,,0.00,WUHU216HW,2013-05-04 06:56:00,
2013-05-04 03:01:00,61.9,57.7,29.95,SE,135,10.7,10.7,86,0.00,,,0.00,WUHU216HW,2013-05-04 07:01:00,
2013-05-04 03:06:00,61.9,57.3,29.94,East,90,6.9,11.4,85,0.00,,,0.00,WUHU216HW,2013-05-04 07:06:00,
2013-05-04 03:11:00,62.1,57.9,29.94,ENE,68,8.3,12.1,86,0.00,,,0.00,WUHU216HW,2013-05-04 07:11:00,
2013-05-04 03:16:00,62.1,57.5,29.94,NE,45,3.6,12.1,85,0.00,,,0.00,WUHU216HW,2013-05-04 07:16:00,
2013-05-04 03:21:00,62.1,57.5,29.94,ENE,68,9.6,10.3,85,0.00,,,0.00,WUHU216HW,2013-05-04 07:21:00,
2013-05-04 03:26:00,62.1,57.5,29.94,ENE,68,4.3,12.1,85,0.00,,,0.00,WUHU216HW,2013-05-04 07:26:00,
2013-05-04 03:31:00,61.9,57.3,29.94,East,90,7.6,12.1,85,0.01,,,0.00,WUHU216HW,2013-05-04 07:31:00,
2013-05-04 03:36:00,61.9,57.3,29.94,East,90,4.0,12.8,85,0.01,,,0.01,WUHU216HW,2013-05-04 07:36:00,
2013-05-04 03:41:00,61.9,57.3,29.94,ENE,68,5.6,12.8,85,0.01,,,0.01,WUHU216HW,2013-05-04 07:41:00,
2013-05-04 03:46:00,61.9,57.3,29.94,ENE,68,4.7,9.4,85,0.01,,,0.01,WUHU216HW,2013-05-04 07:46:00,
2013-05-04 03:51:00,61.9,57.3,29.94,East,90,3.4,9.4,85,0.01,,,0.01,WUHU216HW,2013-05-04 07:51:00,
2013-05-04 03:56:00,61.9,57.3,29.94,SE,135,1.1,12.1,85,0.01,,,0.01,WUHU216HW,2013-05-04 07:56:00,
2013-05-04 04:01:00,61.7,57.2,29.94,NE,45,2.7,12.1,85,0.01,,,0.01,WUHU216HW,2013-05-04 08:01:00,
2013-05-04 04:06:00,61.7,57.5,29.94,ESE,113,9.8,9.8,86,0.01,,,0.01,WUHU216HW,2013-05-04 08:06:00,
2013-05-04 04:11:00,61.9,57.7,29.94,ENE,68,3.4,9.8,86,0.01,,,0.01,WUHU216HW,2013-05-04 08:11:00,
2013-05-04 04:16:00,61.9,57.7,29.94,ENE,68,6.7,7.8,86,0.01,,,0.01,WUHU216HW,2013-05-04 08:16:00,
2013-05-04 04:21:00,61.7,57.5,29.93,WNW,293,3.1,9.8,86,0.01,,,0.01,WUHU216HW,2013-05-04 08:21:00,
2013-05-04 04:26:00,61.6,57.3,29.93,East,90,1.3,10.5,86,0.01,,,0.01,WUHU216HW,2013-05-04 08:26:00,
2013-05-04 04:31:00,61.6,57.3,29.93,ENE,68,8.5,10.5,86,0.00,,,0.01,WUHU216HW,2013-05-04 08:31:00,
2013-05-04 04:36:00,61.6,57.7,29.93,East,90,7.6,8.9,87,0.00,,,0.01,WUHU216HW,2013-05-04 08:36:00,
2013-05-04 04:41:00,61.6,57.7,29.93,East,90,7.2,8.9,87,0.00,,,0.01,WUHU216HW,2013-05-04 08:41:00,
2013-05-04 04:46:00,61.6,57.7,29.93,ENE,68,9.2,11.4,87,0.00,,,0.01,WUHU216HW,2013-05-04 08:46:00,
2013-05-04 04:51:00,61.6,57.7,29.93,ENE,68,3.8,11.4,87,0.00,,,0.01,WUHU216HW,2013-05-04 08:51:00,
2013-05-04 04:56:00,61.6,57.7,29.93,ENE,68,3.6,9.6,87,0.01,,,0.01,WUHU216HW,2013-05-04 08:56:00,
2013-05-04 05:01:00,61.6,57.7,29.93,ESE,113,8.1,11.2,87,0.01,,,0.02,WUHU216HW,2013-05-04 09:01:00,
2013-05-04 05:06:00,61.4,57.5,29.93,ENE,68,2.7,11.4,87,0.01,,,0.02,WUHU216HW,2013-05-04 09:06:00,
2013-05-04 05:11:00,61.4,57.5,29.94,ESE,113,8.5,11.4,87,0.01,,,0.02,WUHU216HW,2013-05-04 09:11:00,
2013-05-04 05:16:00,61.4,57.5,29.94,East,90,7.6,9.2,87,0.01,,,0.02,WUHU216HW,2013-05-04 09:16:00,
2013-05-04 05:22:00,61.2,57.3,29.94,ENE,68,2.9,9.6,87,0.01,,,0.02,WUHU216HW,2013-05-04 09:22:00,
2013-05-04 05:27:00,61.2,57.3,29.94,ENE,68,10.3,10.3,87,0.01,,,0.02,WUHU216HW,2013-05-04 09:27:00,
2013-05-04 05:32:00,61.0,57.2,29.95,ESE,113,2.5,10.3,87,0.01,,,0.02,WUHU216HW,2013-05-04 09:32:00,
2013-05-04 05:36:00,60.8,57.0,29.95,East,90,4.7,11.2,87,0.01,,,0.02,WUHU216HW,2013-05-04 09:36:00,
2013-05-04 05:41:00,60.8,57.0,29.95,East,90,9.8,11.2,87,0.01,,,0.02,WUHU216HW,2013-05-04 09:41:00,
2013-05-04 05:46:00,60.8,57.0,29.95,East,90,7.4,11.2,87,0.01,,,0.02,WUHU216HW,2013-05-04 09:46:00,
2013-05-04 05:51:00,60.7,56.8,29.95,NE,45,9.8,11.2,87,0.01,,,0.02,WUHU216HW,2013-05-04 09:51:00,
2013-05-04 05:56:00,60.7,56.8,29.95,ENE,68,3.4,10.7,87,0.00,,,0.02,WUHU216HW,2013-05-04 09:56:00,
2013-05-04 06:02:00,60.7,56.8,29.95,NE,45,5.4,10.7,87,0.00,,,0.02,WUHU216HW,2013-05-04 10:02:00,
2013-05-04 06:07:00,60.7,56.8,29.95,ENE,68,7.2,9.8,87,0.00,,,0.02,WUHU216HW,2013-05-04 10:07:00,
2013-05-04 06:12:00,60.5,56.6,29.95,ENE,68,10.5,10.5,87,0.00,,,0.02,WUHU216HW,2013-05-04 10:12:00,
2013-05-04 06:17:00,60.5,56.4,29.95,East,90,4.5,10.5,86,0.00,,,0.02,WUHU216HW,2013-05-04 10:17:00,
2013-05-04 06:22:00,60.5,56.4,29.95,NE,45,5.4,9.8,86,0.00,,,0.02,WUHU216HW,2013-05-04 10:22:00,
2013-05-04 06:27:00,60.5,56.4,29.95,ESE,113,2.2,9.6,86,0.00,,,0.02,WUHU216HW,2013-05-04 10:27:00,
2013-05-04 06:32:00,60.5,56.4,29.95,East,90,2.7,9.6,86,0.00,,,0.02,WUHU216HW,2013-05-04 10:32:00,
2013-05-04 06:37:00,60.5,56.6,29.95,ENE,68,1.3,10.3,87,0.00,,,0.02,WUHU216HW,2013-05-04 10:37:00,
2013-05-04 06:42:00,60.5,56.6,29.95,ENE,68,4.3,10.3,87,0.00,,,0.02,WUHU216HW,2013-05-04 10:42:00,
2013-05-04 06:47:00,60.5,56.6,29.96,ENE,68,9.6,9.6,87,0.00,,,0.02,WUHU216HW,2013-05-04 10:47:00,
2013-05-04 06:52:00,60.3,56.2,29.96,ESE,113,4.7,9.6,86,0.00,,,0.02,WUHU216HW,2013-05-04 10:52:00,
2013-05-04 06:57:00,60.3,56.4,29.96,NNE,23,4.7,8.9,87,0.00,,,0.02,WUHU216HW,2013-05-04 10:57:00,
2013-05-04 07:02:00,60.5,56.6,29.96,East,90,6.9,6.9,87,0.00,,,0.02,WUHU216HW,2013-05-04 11:02:00,
2013-05-04 07:07:00,60.3,56.4,29.96,East,90,8.1,8.1,87,0.00,,,0.02,WUHU216HW,2013-05-04 11:07:00,
2013-05-04 07:12:00,60.3,56.2,29.97,East,90,6.3,8.1,86,0.00,,,0.02,WUHU216HW,2013-05-04 11:12:00,
2013-05-04 07:17:00,60.3,56.4,29.97,ENE,68,4.7,6.5,87,0.00,,,0.02,WUHU216HW,2013-05-04 11:17:00,
2013-05-04 07:22:00,60.3,56.4,29.97,ENE,68,4.9,6.5,87,0.00,,,0.02,WUHU216HW,2013-05-04 11:22:00,
2013-05-04 07:27:00,60.3,56.4,29.97,East,90,10.7,10.7,87,0.00,,,0.02,WUHU216HW,2013-05-04 11:27:00,
2013-05-04 07:32:00,60.3,56.4,29.97,ENE,68,4.7,10.7,87,0.00,,,0.02,WUHU216HW,2013-05-04 11:32:00,
2013-05-04 07:37:00,60.3,56.4,29.97,ENE,68,2.9,7.6,87,0.00,,,0.02,WUHU216HW,2013-05-04 11:37:00,
2013-05-04 07:42:00,60.3,56.4,29.97,ENE,68,11.4,11.4,87,0.00,,,0.02,WUHU216HW,2013-05-04 11:42:00,
2013-05-04 07:47:00,60.1,56.3,29.97,East,90,6.7,11.4,87,0.00,,,0.02,WUHU216HW,2013-05-04 11:47:00,
2013-05-04 07:52:00,60.1,56.3,29.97,East,90,8.9,10.5,87,0.00,,,0.02,WUHU216HW,2013-05-04 11:52:00,
2013-05-04 07:57:00,60.1,56.3,29.97,ENE,68,5.1,10.5,87,0.00,,,0.02,WUHU216HW,2013-05-04 11:57:00,
2013-05-04 08:02:00,60.1,56.3,29.97,ENE,68,11.6,11.6,87,0.00,,,0.02,WUHU216HW,2013-05-04 12:02:00,
2013-05-04 08:07:00,60.1,56.3,29.96,East,90,4.3,11.6,87,0.00,,,0.02,WUHU216HW,2013-05-04 12:07:00,
2013-05-04 08:12:00,60.1,56.3,29.96,East,90,3.6,10.1,87,0.00,,,0.02,WUHU216HW,2013-05-04 12:12:00,
2013-05-04 08:17:00,60.1,56.3,29.96,ESE,113,3.4,8.3,87,0.00,,,0.02,WUHU216HW,2013-05-04 12:17:00,
2013-05-04 08:22:00,60.1,56.3,29.96,East,90,6.0,8.3,87,0.00,,,0.02,WUHU216HW,2013-05-04 12:22:00,
2013-05-04 08:28:00,60.1,56.3,29.96,ENE,68,6.7,7.6,87,0.00,,,0.02,WUHU216HW,2013-05-04 12:28:00,
2013-05-04 08:33:00,60.1,56.3,29.96,East,90,9.2,9.2,87,0.00,,,0.02,WUHU216HW,2013-05-04 12:33:00,
2013-05-04 08:38:00,60.1,56.3,29.97,ESE,113,10.3,10.3,87,0.00,,,0.02,WUHU216HW,2013-05-04 12:38:00,
2013-05-04 08:43:00,60.3,56.4,29.96,ESE,113,9.2,13.9,87,0.00,,,0.02,WUHU216HW,2013-05-04 12:43:00,
2013-05-04 08:48:00,60.5,56.6,29.96,NNE,23,5.8,13.9,87,0.00,,,0.02,WUHU216HW,2013-05-04 12:48:00,
2013-05-04 08:53:00,60.5,56.6,29.96,ENE,68,3.6,9.6,87,0.00,,,0.02,WUHU216HW,2013-05-04 12:53:00,
2013-05-04 08:58:00,60.7,56.8,29.96,ENE,68,7.6,9.8,87,0.00,,,0.02,WUHU216HW,2013-05-04 12:58:00,
2013-05-04 09:03:00,60.8,57.0,29.97,ENE,68,9.2,13.9,87,0.00,,,0.02,WUHU216HW,2013-05-04 13:03:00,
2013-05-04 09:08:00,60.8,57.0,29.96,East,90,8.9,13.9,87,0.00,,,0.02,WUHU216HW,2013-05-04 13:08:00,
2013-05-04 09:13:00,61.0,57.2,29.96,East,90,3.4,11.4,87,0.00,,,0.02,WUHU216HW,2013-05-04 13:13:00,
2013-05-04 09:18:00,60.8,57.0,29.97,ENE,68,3.4,11.4,87,0.00,,,0.02,WUHU216HW,2013-05-04 13:18:00,
2013-05-04 09:23:00,61.0,57.2,29.97,ENE,68,8.5,10.5,87,0.00,,,0.02,WUHU216HW,2013-05-04 13:23:00,
2013-05-04 09:28:00,61.0,57.2,29.97,NE,45,7.4,10.5,87,0.00,,,0.02,WUHU216HW,2013-05-04 13:28:00,
2013-05-04 09:33:00,61.2,57.3,29.97,East,90,2.7,8.9,87,0.00,,,0.02,WUHU216HW,2013-05-04 13:33:00,
2013-05-04 09:38:00,61.2,57.3,29.97,East,90,4.5,8.1,87,0.00,,,0.02,WUHU216HW,2013-05-04 13:38:00,
2013-05-04 09:43:00,61.0,57.2,29.97,East,90,7.6,7.6,87,0.00,,,0.02,WUHU216HW,2013-05-04 13:43:00,
2013-05-04 09:48:00,61.0,56.9,29.97,North,0,4.0,11.4,86,0.00,,,0.02,WUHU216HW,2013-05-04 13:48:00,
2013-05-04 09:53:00,61.0,56.9,29.97,ENE,68,4.5,11.4,86,0.00,,,0.02,WUHU216HW,2013-05-04 13:53:00,
2013-05-04 09:58:00,61.0,57.2,29.97,East,90,6.5,7.2,87,0.00,,,0.02,WUHU216HW,2013-05-04 13:58:00,
2013-05-04 10:03:00,61.0,57.2,29.98,East,90,4.9,6.5,87,0.00,,,0.02,WUHU216HW,2013-05-04 14:03:00,
2013-05-04 10:08:00,61.4,57.5,29.98,ENE,68,4.5,8.1,87,0.00,,,0.02,WUHU216HW,2013-05-04 14:08:00,
2013-05-04 10:13:00,61.6,57.7,29.98,East,90,3.4,9.8,87,0.00,,,0.02,WUHU216HW,2013-05-04 14:13:00,
2013-05-04 10:19:00,61.6,57.7,29.97,ENE,68,9.4,9.8,87,0.00,,,0.02,WUHU216HW,2013-05-04 14:19:00,
2013-05-04 10:24:00,61.7,57.5,29.97,East,90,3.4,9.4,86,0.00,,,0.02,WUHU216HW,2013-05-04 14:24:00,
2013-05-04 10:29:00,61.9,57.7,29.98,ENE,68,9.8,9.8,86,0.00,,,0.02,WUHU216HW,2013-05-04 14:29:00,
2013-05-04 10:34:00,61.9,57.7,29.98,ENE,68,5.4,9.8,86,0.00,,,0.02,WUHU216HW,2013-05-04 14:34:00,
2013-05-04 10:39:00,62.1,57.9,29.98,ENE,68,6.5,7.2,86,0.00,,,0.02,WUHU216HW,2013-05-04 14:39:00,
2013-05-04 10:44:00,62.3,58.1,29.98,ENE,68,6.9,7.4,86,0.00,,,0.02,WUHU216HW,2013-05-04 14:44:00,
2013-05-04 10:49:00,62.3,58.1,29.98,East,90,6.9,8.5,86,0.00,,,0.02,WUHU216HW,2013-05-04 14:49:00,
2013-05-04 10:54:00,62.3,58.1,29.98,East,90,6.7,8.5,86,0.00,,,0.02,WUHU216HW,2013-05-04 14:54:00,
2013-05-04 10:59:00,62.3,58.1,29.98,ESE,113,6.0,9.2,86,0.00,,,0.02,WUHU216HW,2013-05-04 14:59:00,
2013-05-04 11:04:00,62.5,58.2,29.98,East,90,5.4,9.2,86,0.00,,,0.02,WUHU216HW,2013-05-04 15:04:00,
2013-05-04 11:09:00,62.6,58.4,29.98,ESE,113,3.8,7.6,86,0.00,,,0.02,WUHU216HW,2013-05-04 15:09:00,
2013-05-04 11:14:00,63.0,58.8,29.98,ESE,113,4.9,7.6,86,0.00,,,0.02,WUHU216HW,2013-05-04 15:14:00,
2013-05-04 11:19:00,63.4,58.8,29.98,East,90,9.2,9.6,85,0.00,,,0.02,WUHU216HW,2013-05-04 15:19:00,
2013-05-04 11:24:00,63.7,59.1,29.98,East,90,5.6,9.6,85,0.00,,,0.02,WUHU216HW,2013-05-04 15:24:00,
2013-05-04 11:29:00,64.3,59.7,29.98,ESE,113,7.8,7.8,85,0.00,,,0.02,WUHU216HW,2013-05-04 15:29:00,
2013-05-04 11:34:00,64.6,60.0,29.97,ENE,68,8.7,8.7,85,0.00,,,0.02,WUHU216HW,2013-05-04 15:34:00,
2013-05-04 11:39:00,65.2,60.6,29.97,East,90,10.3,10.3,85,0.00,,,0.02,WUHU216HW,2013-05-04 15:39:00,
2013-05-04 11:44:00,65.7,60.8,29.97,ENE,68,9.4,14.3,84,0.00,,,0.02,WUHU216HW,2013-05-04 15:44:00,
2013-05-04 11:49:00,65.9,60.9,29.97,ENE,68,4.7,14.3,84,0.00,,,0.02,WUHU216HW,2013-05-04 15:49:00,
2013-05-04 11:54:00,66.2,60.9,29.96,East,90,4.7,13.6,83,0.00,,,0.02,WUHU216HW,2013-05-04 15:54:00,
2013-05-04 11:59:00,66.4,60.8,29.96,NE,45,11.0,13.6,82,0.00,,,0.02,WUHU216HW,2013-05-04 15:59:00,
2013-05-04 12:04:00,66.6,61.3,29.96,East,90,3.4,11.0,83,0.00,,,0.02,WUHU216HW,2013-05-04 16:04:00,
2013-05-04 12:09:00,67.0,61.7,29.96,ESE,113,8.7,9.8,83,0.00,,,0.02,WUHU216HW,2013-05-04 16:09:00,
2013-05-04 12:14:00,67.7,61.8,29.95,ENE,68,6.9,12.8,81,0.00,,,0.02,WUHU216HW,2013-05-04 16:14:00,
2013-05-04 12:19:00,67.9,61.9,29.96,East,90,9.8,12.8,81,0.00,,,0.02,WUHU216HW,2013-05-04 16:19:00,
2013-05-04 12:24:00,68.0,61.7,29.95,ENE,68,4.7,9.8,80,0.00,,,0.02,WUHU216HW,2013-05-04 16:24:00,
2013-05-04 12:29:00,68.0,61.4,29.95,SE,135,10.5,10.5,79,0.00,,,0.02,WUHU216HW,2013-05-04 16:29:00,
2013-05-04 12:34:00,67.7,61.0,29.96,NNW,338,6.3,11.0,79,0.00,,,0.02,WUHU216HW,2013-05-04 16:34:00,
2013-05-04 12:39:00,67.7,61.4,29.95,East,90,9.6,11.0,80,0.00,,,0.02,WUHU216HW,2013-05-04 16:39:00,
2013-05-04 12:44:00,68.0,61.7,29.95,ESE,113,8.3,11.6,80,0.00,,,0.02,WUHU216HW,2013-05-04 16:44:00,
2013-05-04 12:49:00,68.0,61.7,29.95,ENE,68,6.9,11.6,80,0.00,,,0.02,WUHU216HW,2013-05-04 16:49:00,
2013-05-04 12:54:00,67.9,61.2,29.95,North,0,4.0,10.5,79,0.00,,,0.02,WUHU216HW,2013-05-04 16:54:00,
2013-05-04 12:59:00,67.5,61.2,29.95,ENE,68,4.7,8.1,80,0.00,,,0.02,WUHU216HW,2013-05-04 16:59:00,
2013-05-04 13:04:00,67.1,60.8,29.95,ESE,113,12.5,12.5,80,0.00,,,0.02,WUHU216HW,2013-05-04 17:04:00,
2013-05-04 13:09:00,66.8,60.5,29.95,East,90,8.5,12.5,80,0.00,,,0.02,WUHU216HW,2013-05-04 17:09:00,
2013-05-04 13:14:00,66.2,60.3,29.95,East,90,5.4,9.6,81,0.00,,,0.02,WUHU216HW,2013-05-04 17:14:00,
2013-05-04 13:19:00,65.9,60.0,29.95,ESE,113,7.2,9.6,81,0.00,,,0.02,WUHU216HW,2013-05-04 17:19:00,
2013-05-04 13:24:00,65.7,60.0,29.95,East,90,5.1,9.2,82,0.00,,,0.02,WUHU216HW,2013-05-04 17:24:00,
2013-05-04 13:29:00,65.5,59.9,29.95,ENE,68,6.9,13.6,82,0.00,,,0.02,WUHU216HW,2013-05-04 17:29:00,
2013-05-04 13:34:00,65.2,59.9,29.94,East,90,8.1,13.6,83,0.00,,,0.02,WUHU216HW,2013-05-04 17:34:00,
2013-05-04 13:39:00,65.0,60.0,29.94,East,90,6.3,9.8,84,0.00,,,0.02,WUHU216HW,2013-05-04 17:39:00,
2013-05-04 13:44:00,64.8,59.9,29.94,East,90,7.4,8.3,84,0.01,,,0.03,WUHU216HW,2013-05-04 17:44:00,
2013-05-04 13:49:00,64.6,59.3,29.94,ESE,113,9.4,10.1,83,0.01,,,0.03,WUHU216HW,2013-05-04 17:49:00,
2013-05-04 13:54:00,64.4,59.5,29.94,ESE,113,7.4,10.1,84,0.01,,,0.03,WUHU216HW,2013-05-04 17:54:00,
2013-05-04 13:59:00,64.4,59.5,29.94,East,90,8.5,9.8,84,0.01,,,0.03,WUHU216HW,2013-05-04 17:59:00,
2013-05-04 14:04:00,64.4,59.5,29.94,NE,45,6.9,9.8,84,0.01,,,0.03,WUHU216HW,2013-05-04 18:04:00,
2013-05-04 14:09:00,64.4,59.5,29.94,East,90,6.5,9.8,84,0.01,,,0.03,WUHU216HW,2013-05-04 18:09:00,
2013-05-04 14:14:00,64.4,59.5,29.95,ENE,68,8.3,9.2,84,0.01,,,0.03,WUHU216HW,2013-05-04 18:14:00,
2013-05-04 14:19:00,64.8,60.2,29.94,NE,45,9.4,10.5,85,0.01,,,0.03,WUHU216HW,2013-05-04 18:19:00,
2013-05-04 14:24:00,64.8,60.2,29.94,ESE,113,8.3,12.8,85,0.01,,,0.03,WUHU216HW,2013-05-04 18:24:00,
2013-05-04 14:29:00,64.8,60.2,29.94,ENE,68,11.0,12.8,85,0.01,,,0.03,WUHU216HW,2013-05-04 18:29:00,
2013-05-04 14:34:00,64.6,60.0,29.94,East,90,9.4,11.4,85,0.01,,,0.03,WUHU216HW,2013-05-04 18:34:00,
2013-05-04 14:39:00,64.4,59.9,29.94,East,90,4.0,9.4,85,0.01,,,0.03,WUHU216HW,2013-05-04 18:39:00,
2013-05-04 14:44:00,64.4,59.9,29.94,ENE,68,3.4,11.0,85,0.01,,,0.04,WUHU216HW,2013-05-04 18:44:00,
2013-05-04 14:49:00,64.3,59.7,29.93,ENE,68,5.6,11.0,85,0.01,,,0.04,WUHU216HW,2013-05-04 18:49:00,
2013-05-04 14:54:00,64.3,60.0,29.93,East,90,4.9,9.4,86,0.01,,,0.04,WUHU216HW,2013-05-04 18:54:00,
2013-05-04 14:59:00,64.1,59.9,29.93,NE,45,7.6,8.7,86,0.01,,,0.04,WUHU216HW,2013-05-04 18:59:00,
2013-05-04 15:04:00,64.1,59.9,29.93,ENE,68,5.4,10.5,86,0.01,,,0.04,WUHU216HW,2013-05-04 19:04:00,
2013-05-04 15:09:00,64.1,60.2,29.93,East,90,6.0,10.5,87,0.01,,,0.04,WUHU216HW,2013-05-04 19:09:00,
2013-05-04 15:14:00,64.1,60.2,29.93,ENE,68,6.3,7.6,87,0.01,,,0.04,WUHU216HW,2013-05-04 19:14:00,
2013-05-04 15:19:00,64.3,60.4,29.92,East,90,7.6,7.6,87,0.01,,,0.04,WUHU216HW,2013-05-04 19:19:00,
2013-05-04 15:24:00,64.3,60.4,29.92,East,90,6.7,7.8,87,0.01,,,0.04,WUHU216HW,2013-05-04 19:24:00,
2013-05-04 15:29:00,64.4,60.6,29.92,East,90,6.0,12.8,87,0.01,,,0.04,WUHU216HW,2013-05-04 19:29:00,
2013-05-04 15:34:00,64.4,60.6,29.92,East,90,3.4,12.8,87,0.01,,,0.04,WUHU216HW,2013-05-04 19:34:00,
2013-05-04 15:39:00,64.4,60.2,29.92,ENE,68,5.8,10.3,86,0.01,,,0.04,WUHU216HW,2013-05-04 19:39:00,
2013-05-04 15:44:00,64.6,60.4,29.92,ESE,113,8.3,8.3,86,0.00,,,0.04,WUHU216HW,2013-05-04 19:44:00,
2013-05-04 15:49:00,64.8,60.6,29.92,East,90,8.1,10.1,86,0.00,,,0.04,WUHU216HW,2013-05-04 19:49:00,
2013-05-04 15:54:00,64.8,60.6,29.92,East,90,9.6,10.1,86,0.00,,,0.04,WUHU216HW,2013-05-04 19:54:00,
2013-05-04 15:59:00,64.8,60.6,29.92,East,90,5.6,9.6,86,0.00,,,0.04,WUHU216HW,2013-05-04 19:59:00,
2013-05-04 16:04:00,64.8,60.6,29.91,East,90,8.3,8.3,86,0.00,,,0.04,WUHU216HW,2013-05-04 20:04:00,
2013-05-04 16:09:00,65.0,60.7,29.91,East,90,3.8,10.7,86,0.00,,,0.04,WUHU216HW,2013-05-04 20:09:00,
2013-05-04 16:14:00,65.2,60.8,29.91,East,90,9.2,11.4,86,0.00,,,0.04,WUHU216HW,2013-05-04 20:14:00,
2013-05-04 16:19:00,65.2,60.6,29.91,ENE,68,11.4,11.4,85,0.00,,,0.04,WUHU216HW,2013-05-04 20:19:00,
2013-05-04 16:24:00,65.2,60.8,29.91,East,90,7.4,11.4,86,0.00,,,0.04,WUHU216HW,2013-05-04 20:24:00,
2013-05-04 16:29:00,65.2,60.8,29.91,East,90,8.5,10.1,86,0.00,,,0.04,WUHU216HW,2013-05-04 20:29:00,
2013-05-04 16:34:00,65.2,60.8,29.91,East,90,8.7,10.1,86,0.00,,,0.04,WUHU216HW,2013-05-04 20:34:00,
2013-05-04 16:39:00,65.2,60.8,29.91,ENE,68,9.2,9.2,86,0.00,,,0.04,WUHU216HW,2013-05-04 20:39:00,
2013-05-04 16:44:00,65.3,61.0,29.91,ESE,113,10.5,10.5,86,0.00,,,0.04,WUHU216HW,2013-05-04 20:44:00,
2013-05-04 16:49:00,65.3,61.0,29.91,ENE,68,8.3,10.5,86,0.00,,,0.04,WUHU216HW,2013-05-04 20:49:00,
2013-05-04 16:54:00,65.3,61.0,29.91,East,90,2.2,8.3,86,0.00,,,0.04,WUHU216HW,2013-05-04 20:54:00,
2013-05-04 16:59:00,65.3,61.0,29.91,ESE,113,3.8,10.5,86,0.00,,,0.04,WUHU216HW,2013-05-04 20:59:00,
2013-05-04 17:04:00,65.3,61.0,29.90,East,90,7.2,10.5,86,0.00,,,0.04,WUHU216HW,2013-05-04 21:04:00,
2013-05-04 17:09:00,65.3,61.0,29.90,East,90,7.6,9.4,86,0.00,,,0.04,WUHU216HW,2013-05-04 21:09:00,
2013-05-04 17:14:00,65.3,61.0,29.91,ENE,68,7.6,7.6,86,0.00,,,0.04,WUHU216HW,2013-05-04 21:14:00,
2013-05-04 17:19:00,65.5,61.2,29.90,East,90,8.7,10.5,86,0.00,,,0.04,WUHU216HW,2013-05-04 21:19:00,
2013-05-04 17:24:00,65.7,61.0,29.90,East,90,6.7,12.3,85,0.00,,,0.04,WUHU216HW,2013-05-04 21:24:00,
2013-05-04 17:29:00,65.7,61.0,29.90,ENE,68,11.0,12.5,85,0.00,,,0.04,WUHU216HW,2013-05-04 21:29:00,
2013-05-04 17:34:00,65.7,61.0,29.90,ENE,68,7.4,12.5,85,0.00,,,0.04,WUHU216HW,2013-05-04 21:34:00,
2013-05-04 17:39:00,65.7,61.0,29.90,ENE,68,4.0,9.8,85,0.00,,,0.04,WUHU216HW,2013-05-04 21:39:00,
2013-05-04 17:44:00,65.5,60.8,29.90,ESE,113,4.0,9.4,85,0.00,,,0.04,WUHU216HW,2013-05-04 21:44:00,
2013-05-04 17:49:00,65.7,61.0,29.90,ESE,113,7.8,7.8,85,0.00,,,0.04,WUHU216HW,2013-05-04 21:49:00,
2013-05-04 17:54:00,65.5,60.8,29.90,East,90,6.3,10.1,85,0.00,,,0.04,WUHU216HW,2013-05-04 21:54:00,
2013-05-04 17:59:00,65.7,61.0,29.90,ENE,68,4.9,10.1,85,0.00,,,0.04,WUHU216HW,2013-05-04 21:59:00,
2013-05-04 18:04:00,65.5,60.8,29.90,East,90,6.3,9.4,85,0.00,,,0.04,WUHU216HW,2013-05-04 22:04:00,
2013-05-04 18:09:00,65.5,60.8,29.90,ENE,68,4.7,9.4,85,0.00,,,0.04,WUHU216HW,2013-05-04 22:09:00,
2013-05-04 18:14:00,65.5,60.8,29.90,ENE,68,2.9,8.5,85,0.00,,,0.04,WUHU216HW,2013-05-04 22:14:00,
2013-05-04 18:20:00,65.3,60.8,29.90,ENE,68,11.0,11.0,85,0.00,,,0.04,WUHU216HW,2013-05-04 22:20:00,
2013-05-04 18:25:00,65.3,60.8,29.90,East,90,5.4,11.0,85,0.00,,,0.04,WUHU216HW,2013-05-04 22:25:00,
2013-05-04 18:30:00,65.2,60.6,29.90,ENE,68,5.4,8.3,85,0.00,,,0.04,WUHU216HW,2013-05-04 22:30:00,
2013-05-04 18:35:00,65.2,60.6,29.90,East,90,4.7,14.3,85,0.00,,,0.04,WUHU216HW,2013-05-04 22:35:00,
2013-05-04 18:40:00,65.2,60.6,29.90,ENE,68,6.9,14.3,85,0.00,,,0.04,WUHU216HW,2013-05-04 22:40:00,
2013-05-04 18:45:00,65.2,60.8,29.90,ESE,113,3.6,10.5,86,0.00,,,0.04,WUHU216HW,2013-05-04 22:45:00,
2013-05-04 18:50:00,65.0,60.4,29.90,ENE,68,8.7,13.0,85,0.00,,,0.04,WUHU216HW,2013-05-04 22:50:00,
2013-05-04 18:55:00,65.0,60.4,29.90,ENE,68,5.1,13.0,85,0.00,,,0.04,WUHU216HW,2013-05-04 22:55:00,
2013-05-04 19:00:00,65.0,60.4,29.90,East,90,10.5,10.5,85,0.00,,,0.04,WUHU216HW,2013-05-04 23:00:00,
2013-05-04 19:05:00,65.0,60.4,29.90,East,90,8.7,10.5,85,0.01,,,0.05,WUHU216HW,2013-05-04 23:05:00,
2013-05-04 19:10:00,64.8,60.2,29.90,East,90,9.2,9.2,85,0.01,,,0.05,WUHU216HW,2013-05-04 23:10:00,
2013-05-04 19:15:00,65.0,60.4,29.90,ENE,68,6.3,9.2,85,0.01,,,0.05,WUHU216HW,2013-05-04 23:15:00,
2013-05-04 19:20:00,64.8,60.2,29.90,ENE,68,3.4,9.6,85,0.01,,,0.05,WUHU216HW,2013-05-04 23:20:00,
2013-05-04 19:25:00,64.8,60.2,29.90,East,90,5.1,9.6,85,0.01,,,0.05,WUHU216HW,2013-05-04 23:25:00,
2013-05-04 19:30:00,64.8,60.2,29.91,NE,45,9.6,9.6,85,0.01,,,0.05,WUHU216HW,2013-05-04 23:30:00,
2013-05-04 19:35:00,64.8,60.2,29.91,NNW,338,4.7,9.6,85,0.01,,,0.05,WUHU216HW,2013-05-04 23:35:00,
2013-05-04 19:40:00,64.8,60.2,29.92,ENE,68,0.9,9.4,85,0.01,,,0.05,WUHU216HW,2013-05-04 23:40:00,
2013-05-04 19:45:00,64.8,60.2,29.92,East,90,2.9,8.3,85,0.01,,,0.05,WUHU216HW,2013-05-04 23:45:00,
2013-05-04 19:50:00,64.6,60.0,29.93,NE,45,3.6,7.2,85,0.01,,,0.05,WUHU216HW,2013-05-04 23:50:00,
2013-05-04 19:55:00,64.6,60.0,29.93,East,90,3.8,8.1,85,0.01,,,0.05,WUHU216HW,2013-05-04 23:55:00,
2013-05-04 20:00:00,64.6,60.0,29.93,ENE,68,8.9,8.9,85,0.01,,,0.05,WUHU216HW,2013-05-05 00:00:00,
2013-05-04 20:05:00,64.4,59.9,29.92,ENE,68,10.7,10.7,85,0.00,,,0.05,WUHU216HW,2013-05-05 00:05:00,
2013-05-04 20:10:00,64.4,59.9,29.92,ESE,113,6.3,12.5,85,0.00,,,0.05,WUHU216HW,2013-05-05 00:10:00,
2013-05-04 20:15:00,64.4,59.9,29.92,ENE,68,6.7,12.5,85,0.00,,,0.05,WUHU216HW,2013-05-05 00:15:00,
2013-05-04 20:20:00,64.4,59.9,29.92,NE,45,7.2,9.2,85,0.00,,,0.05,WUHU216HW,2013-05-05 00:20:00,
2013-05-04 20:25:00,64.4,59.9,29.92,ENE,68,5.1,9.8,85,0.00,,,0.05,WUHU216HW,2013-05-05 00:25:00,
2013-05-04 20:30:00,64.4,60.2,29.92,East,90,8.3,9.8,86,0.00,,,0.05,WUHU216HW,2013-05-05 00:30:00,
2013-05-04 20:35:00,64.4,60.2,29.92,NE,45,4.9,9.6,86,0.00,,,0.05,WUHU216HW,2013-05-05 00:35:00,
2013-05-04 20:40:00,64.4,60.2,29.91,NE,45,4.5,9.4,86,0.00,,,0.05,WUHU216HW,2013-05-05 00:40:00,
2013-05-04 20:45:00,64.3,60.0,29.90,East,90,11.2,11.6,86,0.00,,,0.05,WUHU216HW,2013-05-05 00:45:00,
2013-05-04 20:50:00,64.3,60.0,29.90,ESE,113,9.8,12.8,86,0.00,,,0.05,WUHU216HW,2013-05-05 00:50:00,
2013-05-04 20:55:00,64.3,60.0,29.90,ESE,113,9.6,12.8,86,0.00,,,0.05,WUHU216HW,2013-05-05 00:55:00,
2013-05-04 21:00:00,64.1,60.2,29.90,ENE,68,13.6,13.6,87,0.00,,,0.05,WUHU216HW,2013-05-05 01:00:00,
2013-05-04 21:05:00,64.1,60.2,29.90,North,0,4.3,13.6,87,0.00,,,0.05,WUHU216HW,2013-05-05 01:05:00,
2013-05-04 21:10:00,64.1,60.2,29.90,ENE,68,4.0,11.4,87,0.00,,,0.05,WUHU216HW,2013-05-05 01:10:00,
2013-05-04 21:15:00,63.9,60.0,29.91,East,90,8.5,11.4,87,0.00,,,0.05,WUHU216HW,2013-05-05 01:15:00,
2013-05-04 21:20:00,63.7,60.1,29.91,ENE,68,5.4,9.4,88,0.01,,,0.06,WUHU216HW,2013-05-05 01:20:00,
2013-05-04 21:25:00,63.7,60.1,29.90,ENE,68,6.9,11.0,88,0.02,,,0.07,WUHU216HW,2013-05-05 01:25:00,
2013-05-04 21:30:00,63.5,59.9,29.91,East,90,8.9,11.0,88,0.03,,,0.07,WUHU216HW,2013-05-05 01:30:00,
2013-05-04 21:35:00,63.4,60.1,29.91,ENE,68,8.7,10.5,89,0.03,,,0.08,WUHU216HW,2013-05-05 01:35:00,
2013-05-04 21:40:00,63.4,60.1,29.90,ENE,68,7.6,10.5,89,0.03,,,0.08,WUHU216HW,2013-05-05 01:40:00,
2013-05-04 21:45:00,63.2,59.9,29.90,ESE,113,7.4,8.3,89,0.03,,,0.08,WUHU216HW,2013-05-05 01:45:00,
2013-05-04 21:50:00,63.2,59.9,29.90,NE,45,7.6,10.5,89,0.04,,,0.10,WUHU216HW,2013-05-05 01:50:00,
2013-05-04 21:55:00,63.0,60.1,29.90,East,90,8.5,12.5,90,0.04,,,0.10,WUHU216HW,2013-05-05 01:55:00,
2013-05-04 22:00:00,63.0,60.1,29.91,ENE,68,5.6,12.5,90,0.04,,,0.10,WUHU216HW,2013-05-05 02:00:00,
2013-05-04 22:05:00,63.0,60.1,29.91,ENE,68,4.5,9.8,90,0.04,,,0.10,WUHU216HW,2013-05-05 02:05:00,
2013-05-04 22:10:00,63.0,60.1,29.91,ENE,68,6.3,13.9,90,0.04,,,0.10,WUHU216HW,2013-05-05 02:10:00,
2013-05-04 22:15:00,63.0,60.1,29.92,ESE,113,5.4,14.3,90,0.04,,,0.10,WUHU216HW,2013-05-05 02:15:00,
2013-05-04 22:20:00,63.0,60.1,29.92,ENE,68,2.0,14.3,90,0.02,,,0.10,WUHU216HW,2013-05-05 02:20:00,
2013-05-04 22:25:00,63.0,60.1,29.92,ENE,68,8.5,8.9,90,0.02,,,0.10,WUHU216HW,2013-05-05 02:25:00,
2013-05-04 22:30:00,63.0,60.1,29.92,ENE,68,6.7,8.7,90,0.01,,,0.10,WUHU216HW,2013-05-05 02:30:00,
2013-05-04 22:35:00,63.0,60.1,29.92,ENE,68,3.4,10.5,90,0.01,,,0.10,WUHU216HW,2013-05-05 02:35:00,
2013-05-04 22:40:00,63.0,60.1,29.92,East,90,8.7,10.5,90,0.01,,,0.10,WUHU216HW,2013-05-05 02:40:00,
2013-05-04 22:45:00,63.0,60.1,29.92,ESE,113,5.4,8.7,90,0.01,,,0.10,WUHU216HW,2013-05-05 02:45:00,
2013-05-04 22:50:00,63.0,60.1,29.92,ESE,113,11.2,11.2,90,0.00,,,0.10,WUHU216HW,2013-05-05 02:50:00,
2013-05-04 22:55:00,63.0,60.1,29.91,East,90,4.3,11.2,90,0.00,,,0.10,WUHU216HW,2013-05-05 02:55:00,
2013-05-04 23:00:00,63.0,60.1,29.91,ENE,68,8.7,9.4,90,0.00,,,0.10,WUHU216HW,2013-05-05 03:00:00,
2013-05-04 23:05:00,63.0,60.1,29.91,East,90,6.3,11.2,90,0.00,,,0.10,WUHU216HW,2013-05-05 03:05:00,
2013-05-04 23:10:00,63.0,60.1,29.91,NE,45,5.4,11.2,90,0.00,,,0.10,WUHU216HW,2013-05-05 03:10:00,
2013-05-04 23:15:00,63.0,60.1,29.91,NE,45,6.3,9.8,90,0.00,,,0.10,WUHU216HW,2013-05-05 03:15:00,
2013-05-04 23:20:00,63.0,60.1,29.91,ENE,68,4.7,9.4,90,0.00,,,0.10,WUHU216HW,2013-05-05 03:20:00,
2013-05-04 23:25:00,63.0,60.1,29.91,ESE,113,5.8,9.8,90,0.00,,,0.10,WUHU216HW,2013-05-05 03:25:00,
2013-05-04 23:30:00,63.0,60.1,29.91,ENE,68,8.7,9.8,90,0.00,,,0.10,WUHU216HW,2013-05-05 03:30:00,
2013-05-04 23:35:00,63.0,60.4,29.91,East,90,5.4,10.7,91,0.00,,,0.10,WUHU216HW,2013-05-05 03:35:00,
2013-05-04 23:40:00,63.0,60.1,29.90,East,90,4.0,10.7,90,0.01,,,0.10,WUHU216HW,2013-05-05 03:40:00,
2013-05-04 23:45:00,63.2,60.3,29.90,ESE,113,2.5,9.4,90,0.01,,,0.10,WUHU216HW,2013-05-05 03:45:00,
2013-05-04 23:50:00,63.2,60.6,29.90,ENE,68,7.4,9.4,91,0.01,,,0.10,WUHU216HW,2013-05-05 03:50:00,
2013-05-04 23:55:00,63.4,60.8,29.90,ENE,68,3.1,9.4,91,0.01,,,0.10,WUHU216HW,2013-05-05 03:55:00,